When you browse on this site, cookies collect data to enhance your experience and personalize the content and advertising you see.
Visit our Privacy Policy to learn more. By continuing to use the site, you agree to this use of cookies and data.
  • In Lithuania
  • List of Countries
  • For 7 days
  • Water Temperature
  • Satellite Maps
  • Weather Map
  • Weather Widgets
  • user-avatar
    Login

    Hourly Weather Aba-el-Baul

    Today, 21 May, Tuesday

    Time Temperature Precipitation Wind Pressure Humidity
    00:00 +34°C° 0 mm 2 mps 752 mmHg 48%
    01:00 +32°C° 0 mm 2 mps 752 mmHg 49%
    02:00 +32°C° 0 mm 1 mps 752 mmHg 51%
    03:00 +31°C° 0 mm 3 mps 752 mmHg 55%
    04:00 +31°C° 0 mm 2 mps 752 mmHg 55%
    05:00 +31°C° 0 mm 2 mps 752 mmHg 55%
    06:00 +31°C° 0 mm 2 mps 753 mmHg 55%
    07:00 +32°C° 0 mm 2 mps 753 mmHg 49%
    08:00 +35°C° 0 mm 2 mps 753 mmHg 43%
    09:00 +37°C° 0 mm 3 mps 754 mmHg 36%
    10:00 +37°C° 0 mm 3 mps 754 mmHg 35%
    11:00 +38°C° 0 mm 3 mps 753 mmHg 34%
    12:00 +39°C° 0 mm 3 mps 753 mmHg 32%
    13:00 +39°C° 0 mm 3 mps 753 mmHg 31%
    14:00 +39°C° 0 mm 3 mps 753 mmHg 30%
    15:00 +39°C° 0 mm 2 mps 752 mmHg 29%
    16:00 +39°C° 0.1 mm 2 mps 752 mmHg 30%
    17:00 +39°C° 0.1 mm 2 mps 752 mmHg 31%
    18:00 +38°C° 0.1 mm 2 mps 752 mmHg 32%
    19:00 +37°C° 0 mm 3 mps 753 mmHg 34%
    20:00 +37°C° 0 mm 3 mps 753 mmHg 37%
    21:00 +36°C° 0 mm 3 mps 753 mmHg 40%
    22:00 +36°C° 0 mm 2 mps 753 mmHg 41%
    23:00 +35°C° 0 mm 2 mps 753 mmHg 41%

    Tomorrow, 22 May, Wednesday

    Time Temperature Precipitation Wind Pressure Humidity
    00:00 +34°C° 0 mm 1 mps 753 mmHg 42%
    01:00 +35°C° 0 mm 2 mps 753 mmHg 42%
    02:00 +34°C° 0 mm 2 mps 753 mmHg 42%
    03:00 +34°C° 0 mm 3 mps 752 mmHg 42%
    04:00 +34°C° 0 mm 3 mps 753 mmHg 42%
    05:00 +34°C° 0 mm 3 mps 753 mmHg 41%
    06:00 +34°C° 0 mm 3 mps 753 mmHg 41%
    07:00 +36°C° 0 mm 4 mps 753 mmHg 37%
    08:00 +38°C° 0 mm 4 mps 753 mmHg 32%
    09:00 +41°C° 0 mm 5 mps 753 mmHg 27%
    10:00 +42°C° 0 mm 5 mps 753 mmHg 23%
    11:00 +43°C° 0 mm 4 mps 753 mmHg 18%
    12:00 +44°C° 0 mm 4 mps 753 mmHg 13%
    13:00 +45°C° 0 mm 5 mps 752 mmHg 13%
    14:00 +45°C° 0 mm 5 mps 752 mmHg 12%
    15:00 +45°C° 0 mm 5 mps 752 mmHg 12%
    16:00 +45°C° 0 mm 5 mps 752 mmHg 13%
    17:00 +43°C° 0 mm 4 mps 752 mmHg 15%
    18:00 +42°C° 0 mm 4 mps 752 mmHg 17%
    19:00 +41°C° 0 mm 4 mps 752 mmHg 18%
    20:00 +38°C° 0 mm 4 mps 752 mmHg 20%
    21:00 +37°C° 0 mm 3 mps 752 mmHg 21%
    22:00 +36°C° 0 mm 2 mps 752 mmHg 22%
    23:00 +35°C° 0 mm 1 mps 752 mmHg 23%

    Day after tomorrow, 23 May, Thursday

    Time Temperature Precipitation Wind Pressure Humidity
    00:00 +32°C° 0 mm 0 mps 752 mmHg 24%
    01:00 +34°C° 0 mm 1 mps 751 mmHg 24%
    02:00 +34°C° 0 mm 2 mps 751 mmHg 24%
    03:00 +34°C° 0 mm 2 mps 751 mmHg 24%
    04:00 +34°C° 0 mm 3 mps 751 mmHg 24%
    05:00 +34°C° 0 mm 3 mps 751 mmHg 25%
    06:00 +34°C° 0 mm 3 mps 752 mmHg 25%
    07:00 +37°C° 0 mm 3 mps 752 mmHg 22%
    08:00 +40°C° 0 mm 4 mps 752 mmHg 18%
    09:00 +42°C° 0 mm 4 mps 752 mmHg 15%
    10:00 +43°C° 0 mm 4 mps 752 mmHg 13%
    11:00 +45°C° 0 mm 5 mps 752 mmHg 12%
    12:00 +46°C° 0 mm 5 mps 752 mmHg 10%
    13:00 +46°C° 0 mm 5 mps 751 mmHg 9%
    14:00 +47°C° 0 mm 5 mps 750 mmHg 9%
    15:00 +47°C° 0 mm 6 mps 750 mmHg 9%
    16:00 +46°C° 0 mm 5 mps 750 mmHg 9%
    17:00 +44°C° 0 mm 4 mps 750 mmHg 10%
    18:00 +43°C° 0 mm 3 mps 750 mmHg 10%
    19:00 +42°C° 0 mm 3 mps 750 mmHg 15%
    20:00 +40°C° 0 mm 4 mps 751 mmHg 19%
    21:00 +37°C° 0 mm 4 mps 751 mmHg 23%
    22:00 +36°C° 0 mm 3 mps 751 mmHg 25%
    23:00 +35°C° 0 mm 2 mps 751 mmHg 27%

    24 May, Friday

    Time Temperature Precipitation Wind Pressure Humidity
    00:00 +34°C° 0 mm 1 mps 751 mmHg 29%
    01:00 +33°C° 0 mm 1 mps 751 mmHg 29%
    02:00 +33°C° 0 mm 1 mps 751 mmHg 28%
    03:00 +32°C° 0 mm 1 mps 751 mmHg 28%
    04:00 +33°C° 0 mm 1 mps 751 mmHg 26%
    05:00 +33°C° 0 mm 1 mps 751 mmHg 24%
    06:00 +35°C° 0 mm 2 mps 752 mmHg 22%
    07:00 +37°C° 0 mm 2 mps 752 mmHg 19%
    08:00 +39°C° 0 mm 2 mps 752 mmHg 17%
    09:00 +41°C° 0 mm 2 mps 753 mmHg 14%
    10:00 +42°C° 0 mm 2 mps 752 mmHg 13%
    11:00 +44°C° 0 mm 3 mps 752 mmHg 12%
    12:00 +45°C° 0 mm 3 mps 752 mmHg 11%
    13:00 +45°C° 0 mm 4 mps 752 mmHg 11%
    14:00 +45°C° 0 mm 4 mps 751 mmHg 11%
    15:00 +45°C° 0 mm 4 mps 751 mmHg 11%
    16:00 +44°C° 0 mm 4 mps 751 mmHg 13%
    17:00 +43°C° 0 mm 4 mps 751 mmHg 15%
    18:00 +41°C° 0 mm 4 mps 751 mmHg 17%
    19:00 +40°C° 0 mm 4 mps 751 mmHg 19%
    20:00 +38°C° 0 mm 4 mps 752 mmHg 22%
    21:00 +37°C° 0 mm 3 mps 752 mmHg 25%
    22:00 +36°C° 0 mm 3 mps 752 mmHg 25%
    23:00 +36°C° 0 mm 3 mps 751 mmHg 26%

    25 May, Saturday

    Time Temperature Precipitation Wind Pressure Humidity
    00:00 +35°C° 0 mm 2 mps 751 mmHg 27%
    01:00 +35°C° 0 mm 2 mps 751 mmHg 27%
    02:00 +34°C° 0 mm 2 mps 751 mmHg 27%
    03:00 +34°C° 0 mm 3 mps 750 mmHg 27%
    04:00 +34°C° 0 mm 2 mps 751 mmHg 27%
    05:00 +33°C° 0 mm 1 mps 751 mmHg 27%
    06:00 +31°C° 0 mm 0 mps 751 mmHg 26%
    07:00 +35°C° 0 mm 1 mps 752 mmHg 23%
    08:00 +37°C° 0 mm 1 mps 752 mmHg 20%
    09:00 +39°C° 0 mm 1 mps 752 mmHg 17%
    10:00 +41°C° 0 mm 1 mps 752 mmHg 16%
    11:00 +42°C° 0 mm 1 mps 752 mmHg 14%
    12:00 +43°C° 0 mm 2 mps 751 mmHg 13%
    13:00 +43°C° 0 mm 2 mps 751 mmHg 12%
    14:00 +45°C° 0 mm 3 mps 750 mmHg 12%
    15:00 +45°C° 0 mm 3 mps 749 mmHg 12%
    16:00 +43°C° 0 mm 4 mps 749 mmHg 14%
    17:00 +42°C° 0 mm 4 mps 749 mmHg 17%
    18:00 +41°C° 0 mm 5 mps 750 mmHg 19%
    19:00 +40°C° 0 mm 4 mps 750 mmHg 21%
    20:00 +38°C° 0 mm 3 mps 750 mmHg 23%
    21:00 +37°C° 0 mm 2 mps 750 mmHg 25%
    22:00 +36°C° 0 mm 2 mps 750 mmHg 26%
    23:00 +35°C° 0 mm 2 mps 750 mmHg 27%

    26 May, Sunday

    Time Temperature Precipitation Wind Pressure Humidity
    00:00 +35°C° 0 mm 2 mps 750 mmHg 29%
    01:00 +34°C° 0 mm 2 mps 749 mmHg 29%
    02:00 +34°C° 0 mm 2 mps 749 mmHg 30%
    03:00 +32°C° 0 mm 2 mps 749 mmHg 30%
    04:00 +32°C° 0 mm 2 mps 750 mmHg 31%
    05:00 +32°C° 0 mm 2 mps 750 mmHg 31%
    06:00 +32°C° 0 mm 2 mps 750 mmHg 32%
    07:00 +35°C° 0 mm 2 mps 750 mmHg 28%
    08:00 +36°C° 0 mm 2 mps 751 mmHg 24%
    09:00 +38°C° 0 mm 2 mps 751 mmHg 21%
    10:00 +39°C° 0 mm 2 mps 751 mmHg 18%
    11:00 +41°C° 0 mm 2 mps 750 mmHg 16%
    12:00 +42°C° 0 mm 2 mps 750 mmHg 14%
    13:00 +42°C° 0 mm 2 mps 750 mmHg 13%
    14:00 +44°C° 0 mm 3 mps 749 mmHg 12%
    15:00 +44°C° 0 mm 4 mps 749 mmHg 11%
    16:00 +43°C° 0 mm 4 mps 749 mmHg 13%
    17:00 +42°C° 0 mm 4 mps 749 mmHg 15%
    18:00 +40°C° 0 mm 4 mps 750 mmHg 17%
    19:00 +38°C° 0 mm 4 mps 750 mmHg 19%
    20:00 +37°C° 0 mm 3 mps 750 mmHg 21%
    21:00 +36°C° 0 mm 3 mps 750 mmHg 23%
    22:00 +35°C° 0 mm 2 mps 750 mmHg 24%
    23:00 +35°C° 0 mm 2 mps 750 mmHg 24%
    Show more